Temperature
22 20 20 20 21 22 23 22 21 22 24 23 22 22 21 21 21 20 19 19 19 20 20 20 20 19 19 19 18 18 18 18 17 17 17 17 17 18 18 18 18 17 17 17
20 20 20 21 22 22 22 22 21 22 23 24 22 22 21 21 21 20 20 19 20 20 19 19 19 19 19 19 18 18 17 17 17 17 18 18 18 18 18 18 17 17 17 17
21 21 22 22 22 22 22 21 22 22 22 22 23 22 21 21 20 20 20 20 20 20 20 20 19 19 19 18 18 18 18 17 17 17 17 17 17 17 17 17 17 17 17 17
21 21 22 23 22 22 21 22 22 22 22 20 22 21 21 20 20 19 19 19 19 20 20 20 20 19 19 19 18 18 18 17 17 17 17 17 18 17 18 18 17 17 17 17
21 22 22 22 23 22 22 23 23 22 21 20 20 20 20 19 20 19 19 19 19 20 20 20 20 20 19 19 18 18 18 18 17 17 17 17 17 18 18 17 17 17 17 17
21 22 23 23 24 23 23 22 20 18 18 20 21 20 20 19 20 20 19 19 19 19 19 19 19 19 19 19 18 18 18 17 17 17 17 17 17 17 17 17 17 17 17 17
22 22 23 23 24 24 23 20 19 20 19 19 19 20 19 20 20 19 19 19 19 19 19 19 19 19 19 19 18 18 17 17 17 17 17 17 17 17 17 17 17 17 17 17
21 21 22 22 22 22 21 20 19 20 20 19 19 19 19 20 20 20 20 19 19 19 19 19 19 19 19 18 18 18 18 17 17 17 17 17 17 17 17 17 17 17 17 17
19 20 23 23 23 22 21 19 19 18 19 19 19 19 19 20 19 19 19 19 19 19 19 19 19 19 19 18 18 18 18 18 17 17 17 17 17 17 17 17 17 17 17 17
20 21 22 24 24 23 21 18 17 18 18 20 21 20 19 20 20 18 18 18 19 19 19 19 19 19 19 18 18 18 18 18 17 17 17 17 17 17 17 17 17 16 16 17
20 21 22 23 23 23 21 20 17 16 17 18 19 20 20 19 19 18 18 19 19 19 20 20 19 19 19 18 18 18 18 17 17 17 17 17 17 16 16 16 16 16 16 16
19 18 19 21 22 22 22 20 17 19 18 17 18 19 20 19 18 18 18 19 19 19 20 19 19 19 19 18 18 18 17 17 17 17 16 16 16 16 16 16 16 16 16 16
18 18 19 20 21 22 22 19 18 17 15 15 18 20 20 18 18 19 19 19 19 19 19 19 19 19 18 18 18 18 17 17 17 16 16 16 16 16 16 16 16 16 16 16
18 17 18 20 20 20 22 20 18 18 17 17 18 20 20 19 18 18 19 19 19 19 19 19 19 19 18 18 18 18 17 17 17 17 16 16 16 16 16 16 16 16 16 15
18 18 19 19 20 21 22 21 20 20 18 19 19 19 20 18 18 18 18 19 18 19 19 19 19 18 18 18 18 17 17 17 16 16 16 16 16 16 16 16 16 15 15 15
16 18 19 20 21 21 22 21 21 21 19 20 20 19 18 17 18 18 18 18 18 18 18 18 18 18 18 18 18 17 17 17 17 16 16 16 16 16 15 15 15 15 15 15
15 17 18 19 20 21 20 20 20 20 19 19 19 19 17 17 16 17 17 17 18 18 18 18 18 18 18 18 18 17 17 17 16 16 16 16 16 16 15 15 15 15 15 15
15 15 15 16 19 20 19 19 19 18 18 17 18 17 17 16 16 16 17 17 18 18 18 18 18 18 18 18 17 17 17 17 16 16 16 16 15 15 15 15 15 15 14 14
14 14 14 15 17 18 19 19 18 18 17 17 16 16 16 16 16 16 17 17 17 17 18 18 18 18 17 17 17 17 17 16 16 16 16 15 15 15 15 14 14 14 14 14
13 13 14 14 17 17 18 18 18 18 17 17 16 15 16 16 16 16 17 17 17 17 17 17 17 17 17 17 17 16 16 16 16 15 15 15 15 15 14 14 14 14 13 13
14 14 14 15 16 16 17 16 18 18 17 17 16 16 16 16 16 17 17 17 17 17 17 16 16 17 17 17 16 16 16 15 15 15 15 15 14 14 14 14 13 13 13 12
14 14 13 13 15 16 16 16 16 16 16 16 16 16 16 16 16 16 16 16 16 16 16 16 16 16 15 16 15 15 15 15 15 15 14 14 14 13 13 13 12 12 12 11
12 13 12 13 14 14 13 14 14 15 15 16 16 16 16 16 16 15 15 15 15 15 15 15 15 15 15 15 15 15 14 14 14 14 14 13 13 13 12 12 12 11 11 11
12 12 12 12 13 13 13 13 14 15 15 16 16 16 15 15 15 15 14 14 14 14 14 14 14 14 14 14 14 14 14 14 14 13 13 12 12 12 11 11 11 10 10 9
13 12 12 12 13 13 13 13 14 14 14 15 15 14 14 14 13 13 13 13 13 13 13 13 13 13 13 13 13 13 13 13 13 12 12 12 11 11 10 10 9 9 9 9
11 12 12 12 13 12 13 13 13 13 13 13 13 13 13 13 13 12 12 12 12 12 12 12 12 12 12 12 12 12 12 12 12 12 11 11 10 10 9 9 8 7 7 7
Wind_Speed
4 4 5 8 8 6 3 4 9 10 7 5 6 6 5 1 3 5 6 7 7 7 6 7 7 9 9 9 10 11 10 9 8 6 6 5 5 4 4 5 8 10 10 10
4 5 9 7 5 4 4 6 8 10 5 3 4 5 3 1 3 5 7 8 8 6 6 7 7 8 10 10 9 9 9 10 9 8 6 4 4 3 3 3 5 8 10 10
9 6 5 6 5 5 6 6 7 8 8 5 2 6 4 2 1 1 3 5 6 8 9 9 8 9 9 10 11 10 10 10 9 8 5 5 4 3 2 3 3 5 8 9
7 7 5 5 6 7 6 7 8 6 3 5 2 4 7 3 2 1 2 4 6 7 7 7 8 8 9 10 10 10 11 11 10 10 9 10 7 6 5 4 4 4 6 8
8 6 7 8 9 10 9 3 3 3 3 2 2 2 8 3 3 5 5 5 5 6 7 7 7 7 7 8 9 10 10 10 10 10 10 10 7 5 4 4 5 4 4 6
7 5 7 9 7 8 5 5 6 6 4 1 3 2 7 4 6 5 4 5 5 6 6 5 4 5 4 6 7 8 9 9 9 10 10 10 10 8 8 7 6 5 3 3
5 6 6 6 3 1 5 5 4 5 4 5 3 2 9 7 5 6 6 6 5 6 6 6 6 6 6 7 8 8 9 9 9 9 9 10 11 10 10 9 8 7 5 4
5 8 6 7 10 7 7 10 8 6 5 5 3 5 8 5 4 3 4 5 6 7 7 7 7 7 7 7 8 9 9 8 8 8 8 8 9 8 6 7 7 7 6 5
8 7 5 5 6 10 7 6 8 7 3 1 5 7 9 3 3 1 2 5 6 7 8 7 7 7 7 7 7 8 8 7 8 8 7 7 8 8 7 7 6 5 5 5
11 5 6 3 4 2 6 9 7 7 7 4 5 5 5 7 6 3 4 5 5 5 6 6 6 6 6 6 6 6 6 7 6 7 7 7 7 8 7 7 7 6 6 5
8 7 5 3 4 6 5 5 6 5 6 7 4 7 7 8 6 4 4 4 6 6 6 6 6 6 6 6 6 6 6 6 6 6 6 7 7 7 7 7 7 7 6 7
7 6 4 7 5 3 6 8 9 7 5 5 5 8 5 5 4 3 4 4 5 5 5 6 6 6 6 6 6 5 5 5 6 6 6 7 7 7 7 7 7 7 7 7
7 6 1 6 5 0 3 4 5 7 6 6 6 7 3 1 1 1 3 4 4 5 5 5 6 6 6 6 6 5 6 6 6 6 7 7 7 7 7 7 6 6 7 7
6 5 7 9 9 5 4 4 6 7 6 6 8 7 5 4 4 3 3 3 5 6 6 6 6 5 5 5 5 6 5 6 6 7 7 7 7 7 7 7 7 7 7 7
5 4 4 5 5 4 5 6 8 6 9 9 9 8 9 7 5 4 2 3 4 5 5 6 7 6 5 5 4 5 5 5 6 7 7 7 7 7 7 7 7 7 7 7
3 4 2 2 2 3 2 4 7 5 6 5 4 6 4 1 1 2 2 3 4 4 5 5 6 6 6 6 5 5 5 5 6 7 7 6 7 8 8 8 8 8 8 7
3 5 4 2 3 3 3 4 6 4 3 7 8 8 3 2 2 1 1 2 2 3 3 5 6 6 6 6 6 7 6 5 6 6 7 7 8 8 8 9 10 10 9 9
6 5 4 2 2 6 7 3 4 5 1 1 3 3 4 4 4 3 2 2 1 1 1 2 3 4 4 4 5 5 6 6 7 7 7 8 9 9 9 10 10 10 9 10
4 7 5 4 5 3 4 2 4 5 1 1 4 5 5 4 3 3 3 2 1 1 1 1 2 2 3 4 5 6 6 6 7 7 7 8 10 11 11 11 10 10 10 11
5 5 6 5 5 8 7 2 1 5 1 3 5 7 5 4 2 2 1 2 3 2 2 2 2 2 3 4 6 7 7 7 7 7 8 8 10 11 12 12 11 10 11 12
4 4 4 5 4 6 4 4 1 5 7 4 6 6 6 4 4 2 2 2 2 3 3 3 3 2 2 4 7 7 7 7 7 8 9 10 11 12 13 12 11 12 12 12
5 4 4 5 4 7 3 1 5 5 1 3 4 4 4 3 2 2 2 3 3 3 3 3 3 3 3 4 7 7 7 7 9 11 11 11 11 12 13 14 12 12 13 13
4 5 5 6 6 3 1 1 1 1 2 2 2 2 3 2 2 1 1 2 2 2 2 2 3 4 4 4 6 7 7 9 11 12 12 12 13 12 11 13 14 12 10 10
2 3 3 2 3 1 1 1 2 3 2 2 1 1 2 2 2 1 1 1 1 2 2 2 4 5 5 5 7 8 8 10 12 13 13 13 14 13 11 9 10 10 10 10
4 4 2 3 2 0 1 0 1 3 3 3 3 1 1 3 2 2 2 1 2 2 3 4 5 6 6 7 8 9 9 12 13 13 13 13 13 14 13 11 9 9 8 8
4 6 6 6 6 5 4 2 2 2 2 1 2 1 1 2 3 3 3 2 3 3 4 6 7 7 8 9 9 9 9 12 15 13 12 11 12 12 12 13 13 17 14 16
Wind_Direction
131 111 198 209 195 199 218 267 283 280 291 307 300 297 292 221 159 166 172 178 185 195 180 168 172 175 171 170 172 172 171 169 161 166 171 174 182 177 176 181 182 178 175 173
80 240 224 204 196 201 226 276 286 296 327 322 304 305 297 224 194 190 186 189 190 186 173 175 174 177 178 179 176 172 170 173 176 180 177 167 151 161 172 171 172 175 171 170
188 225 190 180 204 221 246 231 255 274 321 350 355 323 307 327 0 145 181 190 185 187 186 183 185 189 184 183 179 179 175 176 179 175 157 138 118 104 136 164 170 174 169 167
219 240 209 211 224 196 259 232 227 260 305 301 25 289 292 312 316 239 212 190 189 191 188 187 190 190 188 187 180 177 178 176 179 177 173 171 175 179 187 174 169 161 163 164
223 209 194 216 225 189 222 224 217 259 209 295 339 196 286 316 271 249 230 210 198 195 189 191 192 191 188 179 177 178 174 175 177 178 179 178 177 176 161 152 153 155 156 165
230 221 200 208 217 193 198 64 48 48 76 330 269 191 279 258 242 251 231 211 199 193 183 180 177 164 162 164 166 165 168 177 179 180 180 179 174 168 162 164 167 165 158 158
280 263 231 192 213 243 136 93 21 355 9 254 282 226 253 257 244 232 228 220 195 182 174 167 165 163 162 163 167 165 168 177 179 181 182 180 177 173 175 175 174 168 168 172
220 278 240 197 194 192 178 150 163 198 222 272 318 245 258 266 266 248 211 195 180 173 172 174 175 169 168 167 168 170 173 177 178 182 184 181 176 172 174 175 170 173 178 178
190 250 280 227 193 156 148 180 166 139 155 255 286 287 302 276 284 275 174 169 183 180 175 175 171 164 163 165 171 176 174 172 175 181 179 177 171 166 170 170 164 166 169 167
165 232 282 287 116 114 147 145 113 132 152 217 282 281 260 276 265 245 197 191 199 185 175 173 170 165 160 159 162 164 167 171 175 176 178 178 172 166 165 164 167 168 166 157
156 191 282 4 175 180 125 123 119 122 150 157 220 265 230 238 245 219 199 194 187 182 175 166 162 158 149 148 154 159 159 156 163 170 169 164 165 161 161 166 170 167 161 158
161 149 240 258 253 195 170 168 149 154 190 169 171 258 273 246 249 196 174 182 182 173 168 164 158 147 147 149 151 157 158 159 162 158 156 159 155 154 159 164 165 159 155 155
141 129 110 336 333 324 146 154 153 127 119 147 166 254 297 336 312 201 166 167 167 156 151 151 151 152 154 155 159 161 164 168 162 154 154 156 156 157 160 159 154 149 144 140
125 128 169 199 216 200 188 168 154 129 143 179 209 233 268 264 255 240 198 174 160 157 158 158 160 162 164 167 167 166 168 167 164 160 159 162 164 161 156 150 145 142 137 134
115 154 207 233 230 185 194 185 171 168 173 173 213 215 236 239 235 227 198 156 147 151 155 164 166 165 165 168 167 164 166 165 163 160 165 168 162 154 148 143 138 133 131 134
92 137 141 314 298 184 187 193 175 171 167 179 175 231 253 256 150 163 163 156 160 155 163 170 165 168 173 174 173 167 168 167 160 162 165 158 154 151 146 141 133 124 118 116
110 125 120 239 309 94 217 216 183 174 183 168 187 215 170 133 125 163 177 166 172 154 147 167 175 180 183 181 176 174 168 159 155 154 152 152 153 147 142 134 123 121 115 109
135 120 133 161 131 204 245 279 157 131 110 198 170 140 139 132 107 65 61 113 91 100 129 160 173 177 178 173 171 164 153 156 158 154 149 144 140 134 127 123 120 117 113 111
145 136 127 140 177 235 274 229 158 139 201 247 144 129 116 121 80 27 27 65 79 87 99 161 164 167 163 166 162 153 152 153 153 152 148 144 140 134 130 126 122 118 113 107
62 98 122 137 164 212 231 274 193 111 221 221 154 149 147 128 112 262 6 52 55 55 63 77 99 112 146 159 149 147 151 151 156 152 145 137 133 130 128 125 120 114 111 108
62 65 126 158 198 246 257 298 105 165 223 189 159 155 151 162 184 179 98 64 58 60 60 75 95 107 135 144 144 147 147 153 144 129 125 123 121 122 121 117 116 115 111 106
161 147 167 149 179 237 303 66 181 209 166 125 145 147 144 147 125 100 78 59 48 51 53 74 89 88 97 128 141 144 147 140 126 122 119 117 117 120 121 119 114 111 111 108
188 186 184 188 207 247 322 206 325 107 115 116 130 126 131 140 157 133 88 58 40 55 60 73 91 89 83 100 129 135 131 124 122 118 115 113 109 109 115 118 117 112 107 108
250 154 147 226 249 253 346 21 27 50 86 88 109 142 154 178 186 159 124 89 64 60 80 94 99 97 91 93 101 111 115 118 117 115 113 112 109 105 101 103 109 113 114 113
222 168 169 236 236 157 272 214 77 64 70 71 57 69 169 162 171 169 152 127 102 88 89 102 108 109 101 98 99 104 112 115 112 110 110 109 108 109 101 89 84 96 94 117
207 179 179 214 209 184 201 175 137 101 75 82 90 53 67 139 145 132 125 114 103 98 99 104 102 102 102 102 100 102 109 114 113 110 108 108 110 110 109 104 88 68 82 87
Height
1486 1493 1498 1496 1495 1495 1497 1500 1503 1494 1484 1484 1484 1483 1478 1476 1477 1477 1479 1480 1480 1482 1485 1488 1490 1493 1496 1499 1501 1504 1509 1513 1517 1522 1526 1530 1534 1538 1541 1544 1547 1549 1551 1553
1491 1494 1488 1487 1490 1493 1496 1501 1500 1490 1482 1483 1485 1483 1478 1476 1476 1476 1477 1478 1479 1481 1483 1486 1489 1492 1494 1497 1499 1503 1505 1509 1514 1519 1523 1528 1532 1536 1540 1542 1545 1547 1550 1552
1489 1486 1481 1486 1489 1493 1495 1499 1497 1495 1487 1484 1486 1488 1482 1478 1477 1477 1477 1477 1478 1480 1482 1484 1487 1489 1491 1494 1497 1501 1504 1508 1512 1517 1521 1526 1530 1534 1538 1541 1543 1545 1548 1550
1484 1479 1480 1484 1487 1489 1497 1487 1489 1490 1497 1502 1494 1507 1488 1482 1479 1476 1476 1476 1477 1479 1481 1483 1485 1487 1489 1492 1495 1499 1501 1505 1509 1514 1518 1522 1526 1530 1534 1537 1541 1544 1546 1549
1481 1476 1478 1482 1481 1482 1485 1481 1484 1488 1495 1502 1499 1506 1497 1484 1481 1477 1475 1475 1476 1478 1480 1482 1484 1485 1487 1490 1493 1496 1499 1503 1507 1511 1515 1519 1524 1528 1532 1535 1538 1541 1544 1547
1473 1470 1471 1472 1471 1473 1476 1483 1489 1498 1503 1513 1502 1505 1501 1487 1479 1474 1473 1474 1475 1477 1478 1481 1483 1484 1486 1488 1491 1494 1498 1501 1505 1509 1513 1517 1521 1525 1529 1532 1535 1538 1541 1544
1476 1470 1466 1466 1472 1473 1478 1496 1515 1515 1522 1518 1502 1502 1498 1476 1472 1471 1471 1472 1473 1475 1477 1479 1481 1483 1485 1487 1490 1493 1497 1500 1503 1507 1510 1514 1518 1522 1526 1529 1532 1536 1539 1542
1485 1483 1465 1462 1467 1475 1480 1490 1512 1521 1523 1516 1503 1503 1486 1471 1469 1468 1468 1470 1472 1474 1476 1478 1480 1481 1484 1486 1489 1492 1495 1498 1501 1505 1508 1512 1515 1519 1523 1526 1530 1534 1537 1540
1483 1481 1460 1457 1457 1465 1479 1486 1485 1505 1511 1515 1508 1497 1480 1468 1468 1467 1468 1469 1471 1472 1474 1476 1479 1481 1482 1485 1488 1491 1493 1496 1499 1502 1506 1509 1512 1516 1519 1524 1528 1532 1535 1538
1467 1476 1462 1456 1457 1461 1466 1477 1493 1504 1518 1519 1506 1500 1492 1474 1469 1467 1468 1469 1470 1472 1474 1476 1478 1480 1482 1484 1487 1490 1492 1494 1497 1501 1504 1507 1510 1513 1517 1522 1526 1529 1533 1536
1461 1472 1468 1462 1463 1466 1472 1478 1486 1499 1502 1515 1516 1503 1473 1469 1466 1466 1467 1467 1469 1471 1472 1475 1477 1479 1482 1484 1486 1489 1491 1493 1496 1499 1502 1505 1508 1512 1515 1519 1523 1527 1531 1533
1459 1470 1477 1468 1457 1456 1460 1469 1480 1492 1500 1504 1507 1497 1463 1463 1462 1463 1465 1467 1468 1470 1472 1474 1476 1479 1481 1484 1486 1488 1490 1492 1495 1498 1501 1504 1507 1510 1514 1518 1521 1525 1529 1532
1457 1470 1482 1478 1470 1461 1461 1465 1471 1480 1494 1504 1504 1490 1462 1462 1461 1462 1464 1465 1467 1469 1471 1474 1476 1478 1481 1483 1485 1487 1489 1492 1494 1497 1500 1502 1506 1509 1513 1516 1520 1523 1527 1530
1450 1465 1474 1479 1473 1463 1462 1463 1468 1474 1490 1496 1490 1478 1465 1462 1461 1461 1462 1464 1466 1468 1471 1473 1475 1478 1480 1482 1485 1486 1488 1491 1493 1496 1498 1501 1504 1507 1511 1515 1518 1522 1525 1528
1449 1462 1461 1460 1456 1456 1456 1458 1462 1465 1471 1479 1475 1472 1464 1460 1460 1460 1461 1463 1465 1467 1469 1472 1474 1477 1479 1482 1484 1486 1488 1490 1492 1494 1497 1499 1502 1505 1509 1513 1516 1520 1523 1526
1451 1458 1458 1458 1453 1453 1455 1455 1457 1458 1462 1464 1465 1466 1458 1458 1459 1460 1461 1463 1464 1466 1468 1470 1473 1475 1478 1480 1482 1484 1486 1488 1491 1493 1495 1498 1501 1504 1507 1511 1515 1518 1522 1525
1455 1458 1465 1467 1458 1456 1465 1457 1456 1457 1457 1458 1463 1460 1457 1458 1459 1460 1461 1462 1463 1465 1467 1469 1471 1473 1476 1478 1480 1483 1485 1487 1489 1492 1494 1497 1500 1503 1507 1510 1513 1517 1520 1523
1455 1461 1468 1471 1465 1475 1463 1451 1451 1455 1456 1455 1454 1455 1456 1458 1460 1461 1461 1462 1463 1465 1467 1469 1470 1472 1474 1477 1479 1481 1483 1486 1488 1490 1493 1496 1499 1502 1506 1509 1512 1515 1519 1522
1450 1458 1469 1476 1475 1468 1458 1451 1452 1455 1458 1455 1455 1456 1457 1459 1460 1462 1462 1462 1464 1465 1466 1468 1469 1471 1473 1475 1477 1479 1482 1484 1486 1489 1492 1495 1498 1501 1505 1508 1511 1514 1517 1520
1452 1455 1466 1473 1473 1477 1460 1449 1448 1453 1461 1454 1454 1455 1457 1459 1465 1465 1463 1463 1464 1465 1466 1467 1468 1469 1471 1472 1475 1477 1479 1482 1485 1487 1491 1494 1497 1500 1504 1507 1510 1513 1516 1518
1458 1462 1466 1470 1469 1463 1452 1449 1450 1463 1459 1451 1452 1454 1456 1458 1461 1462 1462 1463 1464 1465 1466 1466 1467 1468 1469 1471 1472 1475 1477 1480 1483 1487 1490 1493 1496 1500 1503 1506 1509 1511 1514 1517
1460 1463 1466 1469 1469 1466 1450 1449 1453 1453 1449 1450 1452 1453 1455 1457 1459 1461 1461 1463 1463 1464 1465 1466 1466 1467 1467 1469 1471 1473 1476 1479 1482 1485 1489 1492 1496 1499 1502 1505 1508 1511 1514 1517
1457 1457 1459 1460 1460 1453 1450 1450 1450 1449 1449 1450 1452 1454 1455 1457 1458 1460 1461 1462 1463 1463 1464 1465 1465 1466 1467 1468 1470 1472 1475 1478 1481 1484 1487 1491 1495 1499 1502 1505 1508 1511 1514 1517
1453 1452 1455 1455 1452 1450 1450 1450 1449 1449 1450 1451 1452 1454 1455 1456 1457 1459 1460 1461 1462 1462 1463 1464 1464 1465 1467 1468 1470 1472 1474 1477 1480 1483 1487 1491 1495 1499 1503 1506 1509 1511 1515 1518
1450 1451 1453 1453 1450 1450 1450 1450 1450 1450 1450 1451 1452 1453 1454 1454 1456 1458 1459 1460 1461 1461 1462 1463 1464 1465 1466 1468 1470 1473 1475 1478 1481 1484 1487 1491 1495 1499 1503 1508 1511 1514 1518 1521
1447 1448 1451 1450 1446 1447 1448 1449 1450 1450 1450 1451 1451 1452 1453 1453 1454 1456 1458 1459 1460 1461 1462 1463 1464 1465 1467 1469 1471 1474 1476 1479 1481 1485 1489 1492 1496 1501 1504 1509 1513 1518 1521 1525